Location: Sihaung
(22.8641°N, 94.0549°E)
Time: 02:59:57
(UTC+00:00)

Cosmos 2227 - Pass Details

Date: 03 March 2021
Orbit: 833 x 862 km, 71.0° (Epoch: 12 April)

Event Time Altitude Azimuth Distance (km) Brightness Sun altitude
Rises 12:37:08 0° 340° (NNW) 3,436 7.6 -12.1°
Reaches altitude 10° 12:39:36 10° 340° (NNW) 2,495 6.9 -12.7°
Maximum altitude 12:45:20 82° 254° (WSW) 868 4.3 -14.0°
Drops below altitude 10° 12:51:02 10° 167° (SSE) 2,472 6.5 -15.3°
Sets 12:53:28 0° 166° (SSE) 3,401 7.2 -15.9°
